FW4267 Weather Reports


Display with metric or nautical units.
time (UTC)temp
F
wind
direction
speed
MPH
gust
MPH
rain 1hr
in
rain 24hr
in
rain mn
in
humidity
%
barometer
mb
20260902194142 76 282 0.0 1.0 0.00 0.00 0.00 55 1022.4
20260902193645 77 281 0.0 2.0 0.00 0.00 0.00 55 1022.4
20260902193142 77 282 0.0 2.0 0.00 0.00 0.00 54 1022.3
20260902192954 77 281 0.0 2.0 0.00 0.00 0.00 53 1022.2
20260902192141 78 286 1.0 2.0 0.00 0.00 0.00 53 1022.1
20260902191641 78 289 1.0 2.0 0.00 0.00 0.00 52 1022.0
20260902191141 78 289 1.0 2.0 0.00 0.00 0.00 52 1022.0
20260902190643 78 288 1.0 2.0 0.00 0.00 0.00 51 1022.0
20260902190142 78 288 1.0 2.0 0.00 0.00 0.00 51 1021.9
20260902185643 78 290 1.0 2.0 0.00 0.00 0.00 51 1021.9
20260902185142 78 290 2.0 2.0 0.00 0.00 0.00 52 1021.8
20260902184641 79 290 1.0 1.0 0.00 0.00 0.00 51 1021.8
20260902184144 80 286 1.0 1.0 0.00 0.00 0.00 49 1021.7
20260902183640 80 286 1.0 1.0 0.00 0.00 0.00 48 1021.6
20260902183141 80 286 1.0 1.0 0.00 0.00 0.00 48 1021.5
20260902182640 80 286 0.0 1.0 0.00 0.00 0.00 48 1021.4
20260902182141 80 290 0.0 1.0 0.00 0.00 0.00 48 1021.4
20260902181641 80 290 0.0 1.0 0.00 0.00 0.00 48 1021.5
20260902181140 81 290 0.0 1.0 0.00 0.00 0.00 48 1021.4
20260902180953 81 290 0.0 1.0 0.00 0.00 0.00 47 1021.4
20260902180140 82 290 0.0 1.0 0.00 0.00 0.00 47 1021.4
20260902175815 82 285 0.0 1.0 0.00 0.00 0.00 47 1021.4
20260902175739 82 290 0.0 1.0 0.00 0.00 0.00 47 1021.4
20260902174639 82 285 0.0 2.0 0.00 0.00 0.00 46 1021.3
20260902174452 82 285 0.0 2.0 0.00 0.00 0.00 46 1021.3
20260902174126 83 299 0.0 1.0 0.00 0.00 0.00 45 1021.3
20260902174119 83 279 0.0 2.0 0.00 0.00 0.00 46 1021.4
20260902172640 83 300 0.0 3.0 0.00 0.00 0.00 45 1021.3
20260902172140 83 293 1.0 3.0 0.00 0.00 0.00 45 1021.3
20260902171638 83 278 0.0 3.0 0.00 0.00 0.00 45 1021.3
20260902171452 83 278 0.0 3.0 0.00 0.00 0.00 45 1021.2
20260902170946 84 295 0.0 3.0 0.00 0.00 0.00 45 1021.2
20260902170139 84 295 0.0 6.0 0.00 0.00 0.00 45 1021.2
20260902165639 84 309 1.0 6.0 0.00 0.00 0.00 45 1021.2
20260902165447 84 278 0.0 3.0 0.00 0.00 0.00 45 1021.1
20260902164639 84 309 0.0 3.0 0.00 0.00 0.00 44 1021.1
20260902164137 84 282 0.0 4.0 0.00 0.00 0.00 44 1021.1
20260902163819 85 309 1.0 4.0 0.00 0.00 0.00 43 1021.0
20260902163742 84 310 1.0 4.0 0.00 0.00 0.00 43 1021.1
20260902162638 85 292 0.0 3.0 0.00 0.00 0.00 44 1021.0
20260902162138 85 282 1.0 5.0 0.00 0.00 0.00 43 1021.0
20260902161635 85 265 1.0 5.0 0.00 0.00 0.00 44 1021.0
20260902161453 85 279 1.0 3.0 0.00 0.00 0.00 44 1021.1
20260902160638 84 279 0.0 3.0 0.00 0.00 0.00 45 1021.1
20260902160138 85 282 0.0 1.0 0.00 0.00 0.00 44 1021.1
20260902155636 85 285 0.0 3.0 0.00 0.00 0.00 44 1021.1
20260902155446 85 313 0.0 3.0 0.00 0.00 0.00 44 1021.1
20260902154635 85 286 1.0 3.0 0.00 0.00 0.00 43 1021.2
20260902154136 85 295 0.0 5.0 0.00 0.00 0.00 43 1021.1
20260902153638 85 302 2.0 5.0 0.00 0.00 0.00 43 1021.2
20260902153136 85 281 2.0 4.0 0.00 0.00 0.00 43 1021.3
20260902152637 86 286 0.0 2.0 0.00 0.00 0.00 43 1021.1
20260902152135 86 271 0.0 2.0 0.00 0.00 0.00 43 1021.1
20260902151638 86 278 1.0 4.0 0.00 0.00 0.00 43 1021.1
20260902151138 86 307 0.0 5.0 0.00 0.00 0.00 43 1021.1
20260902150637 86 313 0.0 5.0 0.00 0.00 0.00 42 1021.1
20260902150135 86 326 1.0 5.0 0.00 0.00 0.00 42 1021.1
20260902145637 86 307 1.0 5.0 0.00 0.00 0.00 42 1021.1
20260902145443 86 290 2.0 5.0 0.00 0.00 0.00 42 1021.1
20260902144634 87 283 3.0 5.0 0.00 0.00 0.00 41 1021.2
20260902144136 87 6 1.0 4.0 0.00 0.00 0.00 43 1021.2
20260902143635 86 272 0.0 7.0 0.00 0.00 0.00 43 1021.2
20260902143442 86 309 2.0 7.0 0.00 0.00 0.00 42 1021.2
20260902142635 87 275 1.0 3.0 0.00 0.00 0.00 43 1021.2
20260902142135 87 21 1.0 4.0 0.00 0.00 0.00 43 1021.2
20260902141940 87 305 2.0 4.0 0.00 0.00 0.00 42 1021.3
20260902141148 87 326 0.0 3.0 0.00 0.00 0.00 44 1021.3
20260902140633 87 10 0.0 5.0 0.00 0.00 0.00 44 1021.3
20260902140133 86 8 0.0 5.0 0.00 0.00 0.00 44 1021.4
20260902135636 87 305 2.0 5.0 0.00 0.00 0.00 43 1021.4
20260902135135 87 310 1.0 6.0 0.00 0.00 0.00 45 1021.4
20260902134635 87 283 0.0 6.0 0.00 0.00 0.00 44 1021.4
20260902134136 87 338 0.0 3.0 0.00 0.00 0.00 45 1021.4
20260902133635 87 316 1.0 3.0 0.00 0.00 0.00 45 1021.4
20260902133134 88 312 2.0 3.0 0.00 0.00 0.00 42 1021.5
20260902132632 87 76 0.0 1.0 0.00 0.00 0.00 44 1021.6
20260902132132 87 23 0.0 5.0 0.00 0.00 0.00 44 1021.5
20260902131632 87 299 2.0 5.0 0.00 0.00 0.00 43 1021.5
20260902131134 87 258 0.0 4.0 0.00 0.00 0.00 45 1021.5
20260902130806 86 281 0.0 5.0 0.00 0.00 0.00 47 1021.5
20260902130733 86 228 0.0 4.0 0.00 0.00 0.00 45 1021.6
20260902125633 85 35 2.0 5.0 0.00 0.00 0.00 46 1021.6
20260902125132 85 295 1.0 6.0 0.00 0.00 0.00 46 1021.6
20260902124728 85 288 1.0 6.0 0.00 0.00 0.00 46 1021.6
20260902123633 86 299 0.0 4.0 0.00 0.00 0.00 47 1021.7
20260902123132 85 149 0.0 2.0 0.00 0.00 0.00 47 1021.7
20260902122726 85 66 0.0 4.0 0.00 0.00 0.00 48 1021.8
20260902121633 86 289 1.0 3.0 0.00 0.00 0.00 47 1021.9
20260902121131 85 338 1.0 3.0 0.00 0.00 0.00 47 1021.9
20260902120632 86 103 2.0 3.0 0.00 0.00 0.00 47 1022.0
20260902120131 85 123 0.0 4.0 0.00 0.00 0.00 48 1022.0
20260902115630 84 103 0.0 6.0 0.00 0.00 0.00 50 1022.0
20260902115133 84 106 2.0 6.0 0.00 0.00 0.00 49 1022.1
20260902114630 83 56 0.0 4.0 0.00 0.00 0.00 50 1022.1
20260902114133 83 275 1.0 6.0 0.00 0.00 0.00 48 1022.1
20260902113632 83 109 3.0 6.0 0.00 0.00 0.00 49 1022.2
20260902113146 83 82 0.0 2.0 0.00 0.00 0.00 49 1022.2
20260902112630 83 113 1.0 4.0 0.00 0.00 0.00 49 1022.3
20260902112130 83 110 1.0 4.0 0.00 0.00 0.00 50 1022.4
20260902111629 83 87 2.0 4.0 0.00 0.00 0.00 50 1022.4
20260902111128 83 80 3.0 4.0 0.00 0.00 0.00 49 1022.4
20260902110631 84 65 0.0 5.0 0.00 0.00 0.00 50 1022.5
20260902110446 83 97 1.0 5.0 0.00 0.00 0.00 51 1022.5
20260902105632 83 103 1.0 5.0 0.00 0.00 0.00 51 1022.6
20260902105130 82 89 1.0 2.0 0.00 0.00 0.00 52 1022.6
20260902104630 81 272 0.0 3.0 0.00 0.00 0.00 52 1022.7
20260902104130 82 264 1.0 3.0 0.00 0.00 0.00 51 1022.8
20260902103939 82 316 1.0 3.0 0.00 0.00 0.00 52 1022.8
20260902103130 82 109 0.0 5.0 0.00 0.00 0.00 53 1022.8
20260902102630 81 90 2.0 5.0 0.00 0.00 0.00 53 1022.9
20260902102132 82 69 0.0 5.0 0.00 0.00 0.00 53 1022.9
20260902101628 82 109 3.0 5.0 0.00 0.00 0.00 51 1022.9
20260902101131 82 56 0.0 3.0 0.00 0.00 0.00 55 1023.0
20260902100629 80 137 0.0 3.0 0.00 0.00 0.00 56 1022.8
20260902100442 79 293 1.0 3.0 0.00 0.00 0.00 57 1023.0
20260902095628 79 289 1.0 3.0 0.00 0.00 0.00 57 1022.9
20260902095129 78 227 1.0 3.0 0.00 0.00 0.00 57 1022.9
20260902094628 79 247 0.0 3.0 0.00 0.00 0.00 56 1022.9
20260902094258 78 83 0.0 3.0 0.00 0.00 0.00 59 1023.0
20260902094226 79 303 1.0 3.0 0.00 0.00 0.00 58 1022.9
20260902093446 77 261 0.0 3.0 0.00 0.00 0.00 60 1022.9
20260902092629 78 281 1.0 3.0 0.00 0.00 0.00 60 1023.0
20260902092127 78 276 1.0 3.0 0.00 0.00 0.00 59 1022.9
20260902091626 78 275 0.0 3.0 0.00 0.00 0.00 59 1022.9
20260902091126 78 264 1.0 3.0 0.00 0.00 0.00 60 1022.8
20260902090624 77 278 0.0 1.0 0.00 0.00 0.00 62 1022.7
20260902090440 76 197 0.0 2.0 0.00 0.00 0.00 62 1022.7
20260902085627 75 358 0.0 3.0 0.00 0.00 0.00 65 1022.7
20260902085128 75 151 0.0 3.0 0.00 0.00 0.00 65 1022.6
20260902084626 75 306 1.0 2.0 0.00 0.00 0.00 64 1022.6
20260902084126 75 276 0.0 2.0 0.00 0.00 0.00 65 1022.5
20260902083626 74 288 0.0 2.0 0.00 0.00 0.00 65 1022.6
20260902083127 73 283 0.0 2.0 0.00 0.00 0.00 68 1022.6
20260902082625 73 300 0.0 2.0 0.00 0.00 0.00 68 1022.6
20260902082137 73 290 0.0 2.0 0.00 0.00 0.00 66 1022.5
20260902081624 73 292 0.0 4.0 0.00 0.00 0.00 68 1022.4
20260902081126 73 292 1.0 4.0 0.00 0.00 0.00 68 1022.4
20260902080626 72 285 0.0 3.0 0.00 0.00 0.00 71 1022.4
20260902080125 71 289 0.0 2.0 0.00 0.00 0.00 71 1022.3
20260902075627 71 305 0.0 2.0 0.00 0.00 0.00 73 1022.3
20260902075439 70 298 0.0 2.0 0.00 0.00 0.00 74 1022.5
20260902074626 70 282 1.0 3.0 0.00 0.00 0.00 73 1022.5
20260902074126 70 283 1.0 3.0 0.00 0.00 0.00 72 1022.3
20260902073623 70 303 1.0 3.0 0.00 0.00 0.00 72 1022.3
20260902073126 71 317 1.0 3.0 0.00 0.00 0.00 71 1022.2
20260902072944 71 320 0.0 3.0 0.00 0.00 0.00 72 1022.1
20260902072127 71 283 1.0 3.0 0.00 0.00 0.00 71 1022.2
20260902071626 70 300 1.0 2.0 0.00 0.00 0.00 72 1022.1
20260902071125 70 299 0.0 1.0 0.00 0.00 0.00 73 1022.1
20260902070624 70 313 0.0 1.0 0.00 0.00 0.00 73 1022.1
20260902070439 70 282 0.0 2.0 0.00 0.00 0.00 74 1022.0
20260902065625 70 274 1.0 2.0 0.00 0.00 0.00 73 1022.0
20260902065124 70 333 0.0 1.0 0.00 0.00 0.00 75 1022.0
20260902064627 69 179 0.0 1.0 0.00 0.00 0.00 78 1022.0
20260902064123 68 179 0.0 1.0 0.00 0.00 0.00 79 1022.0
20260902063625 67 75 0.0 1.0 0.00 0.00 0.00 80 1022.0
20260902063124 67 75 0.0 1.0 0.00 0.00 0.00 81 1021.9
20260902062623 66 87 0.0 0.0 0.00 0.00 0.00 83 1021.7
20260902062438 65 87 0.0 0.0 0.00 0.00 0.00 85 1021.8
20260902061937 64 233 0.0 0.0 0.00 0.00 0.00 87 1021.7
20260902061122 63 233 0.0 0.0 0.00 0.00 0.00 89 1021.8
20260902060621 62 233 0.0 0.0 0.00 0.00 0.00 88 1021.7
20260902060440 62 235 0.0 0.0 0.00 0.00 0.00 88 1021.7
20260902055623 62 234 0.0 0.0 0.00 0.00 0.00 88 1021.7
20260902055123 61 235 0.0 0.0 0.00 0.00 0.00 88 1021.6
20260902054624 61 235 0.0 0.0 0.00 0.00 0.00 88 1021.6
20260902054122 61 235 0.0 0.0 0.00 0.00 0.00 88 1021.5
20260902053621 61 235 0.0 0.0 0.00 0.00 0.00 88 1021.5
20260902053120 61 235 0.0 0.0 0.00 0.00 0.00 88 1021.4
20260902052621 61 234 0.0 0.0 0.00 0.00 0.00 88 1021.4
20260902052122 61 235 0.0 1.0 0.00 0.00 0.00 88 1021.4
20260902051623 61 233 0.0 1.0 0.00 0.00 0.00 88 1021.4
20260902051121 61 171 0.0 0.0 0.00 0.00 0.00 88 1021.4
20260902050622 61 171 0.0 0.0 0.00 0.00 0.00 87 1021.5
20260902050121 61 171 0.0 1.0 0.00 0.00 0.00 87 1021.3
20260902045618 62 171 0.0 1.0 0.00 0.00 0.00 87 1021.3
20260902045122 62 285 0.0 0.0 0.00 0.00 0.00 86 1021.2
20260902044620 62 285 0.0 0.0 0.00 0.00 0.00 86 1021.2
20260902044120 62 285 0.0 0.0 0.00 0.00 0.00 86 1021.1
20260902043932 62 285 0.0 0.0 0.00 0.00 0.00 86 1021.1
20260902043122 62 286 0.0 1.0 0.00 0.00 0.00 87 1021.1
20260902042623 62 286 0.0 1.0 0.00 0.00 0.00 86 1021.1
20260902042120 62 286 0.0 0.0 0.00 0.00 0.00 87 1021.1
20260902041618 62 286 0.0 0.0 0.00 0.00 0.00 86 1021.1
20260902041119 62 286 0.0 0.0 0.00 0.00 0.00 86 1021.1
20260902040619 62 286 0.0 0.0 0.00 0.00 0.00 86 1021.2
20260902040433 62 286 0.0 0.0 0.00 0.00 0.00 85 1021.1
20260902040047 63 286 0.0 0.0 0.00 0.00 0.00 84 1021.1
20260902040040 63 286 0.0 0.0 0.00 0.00 0.00 85 1021.1
20260902034620 63 286 0.0 0.0 0.00 0.00 0.00 84 1021.0
20260902034120 63 286 0.0 0.0 0.00 0.00 0.00 84 1021.1
20260902033619 63 286 0.0 0.0 0.00 0.00 0.00 82 1021.1
20260902033438 64 286 0.0 0.0 0.00 0.00 0.00 82 1021.0
20260902032620 64 286 0.0 0.0 0.00 0.00 0.00 81 1021.2
20260902032429 64 286 0.0 1.0 0.00 0.00 0.00 81 1021.1
20260902031619 64 286 0.0 1.0 0.00 0.00 0.00 82 1021.1
20260902031122 64 288 0.0 1.0 0.00 0.00 0.00 82 1021.2
20260902030618 64 288 0.0 1.0 0.00 0.00 0.00 82 1021.0
20260902030124 64 286 0.0 1.0 0.00 0.00 0.00 83 1021.1
20260902025619 63 286 0.0 1.0 0.00 0.00 0.00 84 1021.1
20260902025118 63 286 0.0 1.0 0.00 0.00 0.00 84 1021.1
20260902024619 63 286 0.0 1.0 0.00 0.00 0.00 84 1021.1
20260902024116 63 286 0.0 1.0 0.00 0.00 0.00 84 1021.1
20260902023617 63 286 0.0 1.0 0.00 0.00 0.00 83 1021.1
20260902023116 63 286 0.0 1.0 0.00 0.00 0.00 83 1021.1
20260902022620 64 286 0.0 1.0 0.00 0.00 0.00 83 1021.0
20260902022130 64 286 0.0 1.0 0.00 0.00 0.00 83 1021.0
20260902021929 64 286 0.0 0.0 0.00 0.00 0.00 83 1020.9
20260902021133 64 286 0.0 0.0 0.00 0.00 0.00 82 1020.8
20260902020616 64 286 0.0 1.0 0.00 0.00 0.00 82 1020.8
20260902020117 65 286 0.0 1.0 0.00 0.00 0.00 82 1020.8
20260902015617 65 286 0.0 1.0 0.00 0.00 0.00 82 1020.9
20260902015118 64 286 1.0 1.0 0.00 0.00 0.00 82 1020.9
20260902014620 64 286 1.0 1.0 0.00 0.00 0.00 82 1021.0
20260902014119 65 286 1.0 1.0 0.00 0.00 0.00 81 1020.9
20260902013616 65 286 0.0 1.0 0.00 0.00 0.00 81 1020.8
20260902013248 65 286 1.0 1.0 0.00 0.00 0.00 81 1021.0
20260902013216 65 286 1.0 1.0 0.00 0.00 0.00 80 1020.8
20260902012432 65 286 0.0 1.0 0.00 0.00 0.00 81 1021.0
20260902011922 65 286 1.0 1.0 0.00 0.00 0.00 81 1020.9
20260902011116 65 286 1.0 2.0 0.00 0.00 0.00 80 1020.9
20260902010615 66 286 1.0 3.0 0.00 0.00 0.00 79 1020.9
20260902010422 66 286 2.0 3.0 0.00 0.00 0.00 80 1020.9
20260902005616 65 288 1.0 2.0 0.00 0.00 0.00 80 1020.9
20260902005116 65 285 2.0 2.0 0.00 0.00 0.00 81 1020.7
20260902004617 65 283 1.0 2.0 0.00 0.00 0.00 81 1020.7
20260902004115 65 285 2.0 2.0 0.00 0.00 0.00 80 1020.7
20260902003616 65 283 1.0 2.0 0.00 0.00 0.00 80 1020.7
20260902003114 65 285 2.0 2.0 0.00 0.00 0.00 80 1020.8
20260902002612 66 283 2.0 2.0 0.00 0.00 0.00 79 1020.8
20260902002114 66 285 2.0 2.0 0.00 0.00 0.00 79 1020.8
20260902001615 66 285 2.0 2.0 0.00 0.00 0.00 79 1020.9
20260902001243 66 281 2.0 2.0 0.00 0.00 0.00 80 1021.0
20260902001212 66 281 2.0 2.0 0.00 0.00 0.00 79 1020.9
20260902000114 66 279 2.0 2.0 0.00 0.00 0.00 79 1020.8
20260901235615 66 278 0.0 1.0 0.00 0.00 0.00 79 1020.8
20260901235115 66 278 1.0 1.0 0.00 0.00 0.00 78 1020.8
20260901234616 67 278 1.0 2.0 0.00 0.00 0.00 78 1020.8
20260901234114 67 278 1.0 2.0 0.00 0.00 0.00 77 1020.9
20260901233616 67 278 1.0 2.0 0.00 0.00 0.00 77 1020.8
20260901233126 67 278 1.0 2.0 0.00 0.00 0.00 76 1020.7
20260901232613 67 278 1.0 2.0 0.00 0.00 0.00 76 1020.7
20260901232114 67 278 1.0 1.0 0.00 0.00 0.00 76 1020.7
20260901231616 67 278 0.0 2.0 0.00 0.00 0.00 76 1020.7
20260901231113 67 278 0.0 2.0 0.00 0.00 0.00 76 1020.7
20260901230613 67 278 1.0 2.0 0.00 0.00 0.00 76 1020.7
20260901230125 67 278 1.0 2.0 0.00 0.00 0.00 76 1020.7
20260901225611 67 278 1.0 2.0 0.00 0.00 0.00 76 1020.8
20260901225116 67 278 1.0 1.0 0.00 0.00 0.00 76 1020.8
20260901224613 68 276 1.0 1.0 0.00 0.00 0.00 75 1020.8
20260901224113 68 276 1.0 1.0 0.00 0.00 0.00 75 1020.8
20260901223612 69 276 0.0 1.0 0.00 0.00 0.00 74 1020.7
20260901223113 69 278 0.0 1.0 0.00 0.00 0.00 73 1020.8
20260901222613 69 278 1.0 1.0 0.00 0.00 0.00 72 1020.6
20260901222112 69 276 1.0 1.0 0.00 0.00 0.00 71 1020.6
20260901221615 70 278 0.0 1.0 0.00 0.00 0.00 71 1020.7
20260901221232 71 276 0.0 1.0 0.00 0.00 0.00 70 1020.8
20260901221210 70 276 0.0 1.0 0.00 0.00 0.00 70 1020.6
20260901220124 71 276 0.0 1.0 0.00 0.00 0.00 69 1020.7
20260901215612 72 276 0.0 1.0 0.00 0.00 0.00 67 1020.7
20260901215111 72 276 0.0 1.0 0.00 0.00 0.00 66 1020.7
20260901214612 72 278 0.0 1.0 0.00 0.00 0.00 66 1020.7
20260901214112 73 276 0.0 1.0 0.00 0.00 0.00 66 1020.6
20260901213613 73 276 0.0 1.0 0.00 0.00 0.00 66 1020.7
20260901213110 72 276 0.0 1.0 0.00 0.00 0.00 66 1020.6
20260901212920 72 276 0.0 1.0 0.00 0.00 0.00 66 1020.5
20260901212112 72 276 0.0 0.0 0.00 0.00 0.00 65 1020.5
20260901211611 73 276 0.0 1.0 0.00 0.00 0.00 65 1020.4
20260901211110 73 276 0.0 1.0 0.00 0.00 0.00 64 1020.3
20260901210613 73 276 0.0 0.0 0.00 0.00 0.00 64 1020.3
20260901210117 74 276 0.0 0.0 0.00 0.00 0.00 63 1020.3
20260901205612 74 276 0.0 0.0 0.00 0.00 0.00 64 1020.4
20260901205110 74 276 0.0 1.0 0.00 0.00 0.00 62 1020.3
20260901204614 74 282 0.0 1.0 0.00 0.00 0.00 61 1020.3
20260901204110 75 282 0.0 1.0 0.00 0.00 0.00 61 1020.3
20260901203611 75 282 0.0 2.0 0.00 0.00 0.00 61 1020.2
20260901203110 75 283 1.0 2.0 0.00 0.00 0.00 60 1020.2
20260901202610 75 285 1.0 2.0 0.00 0.00 0.00 60 1020.0
20260901202110 75 286 1.0 3.0 0.00 0.00 0.00 60 1020.2
20260901201609 76 288 2.0 3.0 0.00 0.00 0.00 59 1020.0
20260901201111 76 275 1.0 2.0 0.00 0.00 0.00 59 1019.9
20260901200611 76 279 1.0 1.0 0.00 0.00 0.00 59 1019.7
20260901200123 76 279 0.0 1.0 0.00 0.00 0.00 59 1019.7
20260901195622 76 292 0.0 2.0 0.00 0.00 0.00 58 1019.7
20260901195109 76 292 0.0 2.0 0.00 0.00 0.00 58 1019.5